DLH2PV EDDH-LOWW

Flight info

Callsign DLH2PV
Flight time 1h 20m
Altitude 39000
Route AMLUH2G AMLUH M852 DENIX DCT ZUCKA DCT OMELO DCT EVIKU DCT BITSI DCT MIKOV MIKOV8W
Aircraft A20N/M-SDE2E3FGHIRWXY/LB1

Departure

Time 2026-04-22 17:50
Airport Hamburg Helmut Schmidt Airport (EDDH)

Arrival

Time 2026-04-22 19:11
Airport Vienna International Airport (LOWW)
Time Latitude Longitude Altitude Speed Heading
2026-04-22 17:25 53.63032 10.00349 50 ft 0 kts 122°
2026-04-22 17:41 53.63033 10.00349 50 ft 0 kts 122°
2026-04-22 17:41 53.63036 10.00341 49 ft 2 kts 122°
2026-04-22 17:41 53.63045 10.00318 48 ft 2 kts 127°
2026-04-22 17:41 53.63056 10.00296 47 ft 2 kts 133°
2026-04-22 17:42 53.63068 10.00277 50 ft 2 kts 143°
2026-04-22 17:42 53.63082 10.00263 47 ft 2 kts 161°
2026-04-22 17:42 53.63098 10.00257 47 ft 2 kts 182°
2026-04-22 17:42 53.63110 10.00258 49 ft 1 kts 182°
2026-04-22 17:43 53.63112 10.00259 49 ft 0 kts 181°
2026-04-22 17:45 53.63104 10.00258 48 ft 3 kts 182°
2026-04-22 17:45 53.63068 10.00252 50 ft 7 kts 193°
2026-04-22 17:45 53.63015 10.00207 49 ft 10 kts 211°
2026-04-22 17:45 53.62948 10.00134 50 ft 12 kts 214°
2026-04-22 17:46 53.62911 10.00092 50 ft 0 kts 214°
2026-04-22 17:46 53.62879 10.00054 48 ft 12 kts 221°
2026-04-22 17:46 53.62844 9.99962 50 ft 0 kts 242°
2026-04-22 17:48 53.62836 9.99936 50 ft 6 kts 242°
2026-04-22 17:48 53.62814 9.99824 48 ft 13 kts 272°
2026-04-22 17:48 53.62846 9.99763 48 ft 0 kts 330°
2026-04-22 17:49 53.62960 9.99663 49 ft 51 kts 332°
2026-04-22 17:49 53.63472 9.99219 51 ft 111 kts 333°
2026-04-22 17:49 53.64294 9.98503 132 ft 148 kts 329°
2026-04-22 17:50 53.65243 9.97728 558 ft 159 kts 332°
2026-04-22 17:50 53.66286 9.96950 1102 ft 167 kts 334°
2026-04-22 17:50 53.67355 9.96148 1745 ft 169 kts 334°
2026-04-22 17:50 53.68470 9.95266 2144 ft 188 kts 338°
2026-04-22 17:51 53.69814 9.94761 2639 ft 204 kts 356°
2026-04-22 17:51 53.71240 9.94736 3586 ft 205 kts 358°
2026-04-22 17:51 53.72672 9.94922 4409 ft 211 kts 13°
2026-04-22 17:51 53.73971 9.96119 4801 ft 218 kts 41°
2026-04-22 17:52 53.74758 9.98306 4977 ft 223 kts 72°
2026-04-22 17:52 53.74774 10.00951 4997 ft 232 kts 102°
2026-04-22 17:52 53.74244 10.03515 5088 ft 236 kts 113°
2026-04-22 17:52 53.73418 10.05970 5427 ft 248 kts 118°
2026-04-22 17:53 53.72507 10.08617 5950 ft 271 kts 117°
2026-04-22 17:53 53.71563 10.11429 6823 ft 280 kts 117°
2026-04-22 17:53 53.70601 10.14315 7793 ft 283 kts 117°
2026-04-22 17:53 53.69632 10.17217 8785 ft 286 kts 117°
2026-04-22 17:54 53.68389 10.19885 9697 ft 296 kts 138°
2026-04-22 17:54 53.66578 10.21582 10128 ft 302 kts 161°
2026-04-22 17:54 53.64550 10.22556 10299 ft 304 kts 165°
2026-04-22 17:54 53.62493 10.23417 10348 ft 304 kts 165°
2026-04-22 17:55 53.60424 10.24285 10390 ft 311 kts 165°
2026-04-22 17:55 53.58258 10.25228 10580 ft 334 kts 164°
2026-04-22 17:55 53.55945 10.26266 11079 ft 349 kts 164°
2026-04-22 17:55 53.53584 10.27339 11969 ft 352 kts 163°
2026-04-22 17:56 53.51209 10.28422 12849 ft 356 kts 163°
2026-04-22 17:56 53.48805 10.29521 13744 ft 359 kts 163°
2026-04-22 17:56 53.46411 10.30614 14536 ft 363 kts 163°
2026-04-22 17:56 53.43931 10.31747 15308 ft 366 kts 163°
2026-04-22 17:57 53.41502 10.32854 16057 ft 370 kts 163°
2026-04-22 17:57 53.38999 10.33986 16804 ft 373 kts 163°
2026-04-22 17:57 53.36474 10.35124 17544 ft 377 kts 163°
2026-04-22 17:57 53.33923 10.36270 18278 ft 381 kts 163°
2026-04-22 17:58 53.31351 10.37426 18947 ft 384 kts 163°
2026-04-22 17:58 53.28763 10.38587 19641 ft 386 kts 163°
2026-04-22 17:58 53.26169 10.39748 20305 ft 388 kts 163°
2026-04-22 17:58 53.23554 10.40918 20976 ft 390 kts 163°
2026-04-22 17:59 53.20924 10.42093 21617 ft 392 kts 163°
2026-04-22 17:59 53.18269 10.43278 22272 ft 395 kts 163°
2026-04-22 17:59 53.15604 10.44465 22920 ft 397 kts 163°
2026-04-22 17:59 53.12916 10.45644 23542 ft 400 kts 165°
2026-04-22 18:00 53.11103 10.46253 23950 ft 403 kts 167°
2026-04-22 18:00 53.07436 10.47384 24651 ft 405 kts 167°
2026-04-22 18:00 53.04652 10.48246 25179 ft 407 kts 166°
2026-04-22 18:00 53.01857 10.49113 25675 ft 410 kts 166°
2026-04-22 18:01 52.99045 10.49987 26168 ft 412 kts 166°
2026-04-22 18:01 52.96220 10.50864 26658 ft 414 kts 166°
2026-04-22 18:01 52.93378 10.51745 27116 ft 416 kts 165°
2026-04-22 18:01 52.90562 10.52617 27572 ft 418 kts 165°
2026-04-22 18:02 52.87646 10.53519 28022 ft 421 kts 165°
2026-04-22 18:02 52.84799 10.54398 28449 ft 423 kts 165°
2026-04-22 18:02 52.81860 10.55304 28879 ft 425 kts 165°
2026-04-22 18:02 52.78982 10.56190 29267 ft 427 kts 165°
2026-04-22 18:03 52.76052 10.57091 29656 ft 429 kts 165°
2026-04-22 18:03 52.73112 10.57993 30046 ft 431 kts 165°
2026-04-22 18:03 52.70150 10.58901 30415 ft 433 kts 165°
2026-04-22 18:03 52.67176 10.59811 30741 ft 436 kts 165°
2026-04-22 18:04 52.64187 10.60725 31060 ft 438 kts 165°
2026-04-22 18:04 52.61184 10.61642 31395 ft 439 kts 165°
2026-04-22 18:04 52.58169 10.62560 31761 ft 440 kts 164°
2026-04-22 18:04 52.55161 10.63474 32149 ft 440 kts 164°
2026-04-22 18:05 52.52125 10.64399 32253 ft 447 kts 164°
2026-04-22 18:05 52.45920 10.66287 32391 ft 459 kts 165°
2026-04-22 18:05 52.42766 10.67241 32501 ft 462 kts 165°
2026-04-22 18:06 52.39601 10.68195 32682 ft 462 kts 165°
2026-04-22 18:06 52.36437 10.69147 32898 ft 462 kts 165°
2026-04-22 18:06 52.33277 10.70097 33112 ft 462 kts 164°
2026-04-22 18:06 52.30112 10.71048 33305 ft 462 kts 164°
2026-04-22 18:07 52.28017 10.71678 33446 ft 462 kts 164°
2026-04-22 18:07 52.23861 10.72925 33691 ft 462 kts 164°
2026-04-22 18:07 52.20704 10.73872 33892 ft 462 kts 164°
2026-04-22 18:07 52.17535 10.74820 34110 ft 462 kts 164°
2026-04-22 18:08 52.14380 10.75763 34307 ft 462 kts 164°
2026-04-22 18:08 52.11211 10.76708 34460 ft 463 kts 164°
2026-04-22 18:08 52.08042 10.77653 34603 ft 464 kts 165°
2026-04-22 18:08 52.04865 10.78599 34715 ft 465 kts 165°
2026-04-22 18:09 52.01678 10.79547 34843 ft 466 kts 165°
2026-04-22 18:09 51.98487 10.80495 34956 ft 467 kts 165°
2026-04-22 18:09 51.95280 10.81446 35090 ft 468 kts 165°
2026-04-22 18:09 51.92073 10.82396 35216 ft 469 kts 165°
2026-04-22 18:10 51.88861 10.83346 35334 ft 470 kts 165°
2026-04-22 18:10 51.85648 10.84294 35463 ft 470 kts 165°
2026-04-22 18:10 51.82418 10.85247 35585 ft 471 kts 165°
2026-04-22 18:10 51.79193 10.86196 35713 ft 472 kts 165°
2026-04-22 18:11 51.76036 10.87126 36276 ft 461 kts 164°
2026-04-22 18:11 51.72990 10.88525 36774 ft 450 kts 154°
2026-04-22 18:11 51.70215 10.90790 36974 ft 445 kts 142°
2026-04-22 18:11 51.67803 10.93851 37145 ft 440 kts 131°
2026-04-22 18:12 51.65814 10.97561 37311 ft 436 kts 121°
2026-04-22 18:12 51.64298 11.01767 37490 ft 432 kts 111°
2026-04-22 18:12 51.63538 11.04724 37605 ft 432 kts 108°
2026-04-22 18:12 51.62040 11.10736 37856 ft 433 kts 109°
2026-04-22 18:13 51.60906 11.15235 38034 ft 434 kts 109°
2026-04-22 18:13 51.59762 11.19736 38206 ft 435 kts 109°
2026-04-22 18:13 51.58615 11.24234 38378 ft 436 kts 109°
2026-04-22 18:13 51.57476 11.28692 38551 ft 436 kts 109°
2026-04-22 18:14 51.56314 11.33228 38708 ft 437 kts 109°
2026-04-22 18:14 51.55155 11.37747 38863 ft 438 kts 109°
2026-04-22 18:14 51.53990 11.42279 39011 ft 439 kts 109°
2026-04-22 18:14 51.52821 11.46819 39145 ft 439 kts 109°
2026-04-22 18:15 51.51650 11.51352 39293 ft 439 kts 109°
2026-04-22 18:15 51.49307 11.60398 39317 ft 438 kts 109°
2026-04-22 18:16 51.46962 11.69420 39321 ft 438 kts 109°
2026-04-22 18:16 51.44632 11.78346 39320 ft 437 kts 109°
2026-04-22 18:17 51.42271 11.87359 39322 ft 437 kts 109°
2026-04-22 18:17 51.39908 11.96344 39321 ft 438 kts 109°
2026-04-22 18:18 51.37535 12.05330 39323 ft 437 kts 109°
2026-04-22 18:18 51.35155 12.14307 39321 ft 437 kts 110°
2026-04-22 18:19 51.32790 12.23193 39322 ft 437 kts 110°
2026-04-22 18:19 51.30395 12.32158 39321 ft 437 kts 110°
2026-04-22 18:20 51.28001 12.41085 39323 ft 437 kts 110°
2026-04-22 18:20 51.25599 12.50008 39316 ft 437 kts 110°
2026-04-22 18:21 51.23190 12.58918 39292 ft 436 kts 110°
2026-04-22 18:21 51.21992 12.63336 39078 ft 433 kts 110°
2026-04-22 18:21 51.20813 12.67678 38606 ft 430 kts 110°
2026-04-22 18:21 51.19625 12.72041 38065 ft 426 kts 110°
2026-04-22 18:22 51.18448 12.76361 37516 ft 422 kts 110°
2026-04-22 18:22 51.17282 12.80629 36976 ft 419 kts 110°
2026-04-22 18:22 51.16123 12.84866 36431 ft 415 kts 110°
2026-04-22 18:22 51.15359 12.87655 36091 ft 412 kts 110°
2026-04-22 18:23 51.14201 12.91872 35579 ft 408 kts 110°
2026-04-22 18:23 51.13088 12.95920 35359 ft 401 kts 110°
2026-04-22 18:23 51.11962 13.00013 35298 ft 408 kts 110°
2026-04-22 18:24 51.08513 13.12503 35301 ft 410 kts 110°
2026-04-22 18:25 51.05052 13.24958 35291 ft 410 kts 110°
2026-04-22 18:25 51.02755 13.33188 35282 ft 410 kts 110°
2026-04-22 18:26 50.99277 13.45596 35274 ft 409 kts 110°
2026-04-22 18:26 50.96958 13.53833 35273 ft 408 kts 110°
2026-04-22 18:27 50.94636 13.62055 35267 ft 408 kts 110°
2026-04-22 18:27 50.92308 13.70265 35268 ft 408 kts 110°
2026-04-22 18:28 50.89989 13.78418 35268 ft 408 kts 110°
2026-04-22 18:28 50.87651 13.86608 35266 ft 408 kts 110°
2026-04-22 18:29 50.85247 13.94753 35268 ft 410 kts 114°
2026-04-22 18:29 50.82000 14.02249 35263 ft 417 kts 126°
2026-04-22 18:30 50.75647 14.11829 35257 ft 422 kts 132°
2026-04-22 18:31 50.71300 14.18100 35254 ft 423 kts 132°
2026-04-22 18:31 50.66976 14.24322 35260 ft 423 kts 132°
2026-04-22 18:32 50.62613 14.30578 35259 ft 424 kts 132°
2026-04-22 18:32 50.58243 14.36826 35258 ft 425 kts 132°
2026-04-22 18:33 50.53864 14.43071 35254 ft 425 kts 132°
2026-04-22 18:33 50.49476 14.49312 35255 ft 426 kts 132°
2026-04-22 18:34 50.45084 14.55557 35254 ft 425 kts 131°
2026-04-22 18:34 50.40833 14.62005 35253 ft 425 kts 130°
2026-04-22 18:35 50.36618 14.68474 35254 ft 425 kts 130°
2026-04-22 18:35 50.32356 14.74940 35255 ft 426 kts 130°
2026-04-22 18:36 50.28096 14.81363 35260 ft 426 kts 130°
2026-04-22 18:36 50.23821 14.87791 35257 ft 427 kts 130°
2026-04-22 18:37 50.19530 14.94228 35254 ft 427 kts 130°
2026-04-22 18:37 50.15263 15.00611 35251 ft 427 kts 130°
2026-04-22 18:38 50.10953 15.07042 35249 ft 427 kts 130°
2026-04-22 18:38 50.06652 15.13443 35244 ft 428 kts 130°
2026-04-22 18:39 50.00212 15.22997 35234 ft 428 kts 131°
2026-04-22 18:39 49.95892 15.29384 35233 ft 428 kts 131°
2026-04-22 18:40 49.91564 15.35767 35229 ft 428 kts 131°
2026-04-22 18:40 49.87265 15.42090 35227 ft 429 kts 131°
2026-04-22 18:41 49.82926 15.48456 35227 ft 429 kts 131°
2026-04-22 18:41 49.78581 15.54814 35229 ft 430 kts 131°
2026-04-22 18:42 49.74230 15.61165 35231 ft 430 kts 131°
2026-04-22 18:42 49.69873 15.67507 35237 ft 430 kts 131°
2026-04-22 18:43 49.65505 15.73850 35122 ft 431 kts 131°
2026-04-22 18:43 49.63322 15.77012 34890 ft 428 kts 131°
2026-04-22 18:43 49.61153 15.80147 34653 ft 426 kts 131°
2026-04-22 18:44 49.58994 15.83266 34428 ft 425 kts 130°
2026-04-22 18:44 49.56840 15.86377 34184 ft 424 kts 130°
2026-04-22 18:44 49.54719 15.89436 33912 ft 423 kts 130°
2026-04-22 18:44 49.52564 15.92540 33633 ft 423 kts 130°
2026-04-22 18:45 49.50419 15.95626 33357 ft 422 kts 130°
2026-04-22 18:45 49.48272 15.98711 33080 ft 421 kts 130°
2026-04-22 18:45 49.46132 16.01781 32816 ft 421 kts 130°
2026-04-22 18:45 49.43990 16.04848 32553 ft 420 kts 130°
2026-04-22 18:46 49.41852 16.07908 32293 ft 420 kts 130°
2026-04-22 18:46 49.39717 16.10960 32014 ft 419 kts 130°
2026-04-22 18:46 49.37576 16.14016 31420 ft 420 kts 130°
2026-04-22 18:46 49.35431 16.17075 30629 ft 422 kts 130°
2026-04-22 18:47 49.33273 16.20125 29839 ft 421 kts 132°
2026-04-22 18:47 49.30993 16.22884 29343 ft 412 kts 137°
2026-04-22 18:47 49.28613 16.25202 28782 ft 402 kts 143°
2026-04-22 18:47 49.26102 16.27163 28057 ft 411 kts 147°
2026-04-22 18:48 49.23499 16.29084 27241 ft 417 kts 147°
2026-04-22 18:48 49.20897 16.31004 26468 ft 414 kts 147°
2026-04-22 18:48 49.18316 16.32906 25704 ft 409 kts 148°
2026-04-22 18:48 49.15795 16.34766 24983 ft 407 kts 148°
2026-04-22 18:49 49.13243 16.36651 24260 ft 407 kts 148°
2026-04-22 18:49 49.10695 16.38534 23502 ft 406 kts 148°
2026-04-22 18:49 49.08159 16.40403 22680 ft 404 kts 149°
2026-04-22 18:49 49.05642 16.42254 21868 ft 398 kts 149°
2026-04-22 18:50 49.03163 16.44075 21081 ft 395 kts 149°
2026-04-22 18:50 49.00681 16.45898 20313 ft 394 kts 149°
2026-04-22 18:50 48.98220 16.47704 19562 ft 391 kts 149°
2026-04-22 18:50 48.95776 16.49494 18833 ft 389 kts 149°
2026-04-22 18:51 48.93345 16.51274 18049 ft 386 kts 149°
2026-04-22 18:51 48.91036 16.52962 17275 ft 382 kts 150°
2026-04-22 18:51 48.88687 16.54680 16495 ft 376 kts 150°
2026-04-22 18:51 48.86340 16.56393 15724 ft 371 kts 150°
2026-04-22 18:52 48.84034 16.58074 15124 ft 362 kts 150°
2026-04-22 18:52 48.81818 16.59680 14911 ft 343 kts 150°
2026-04-22 18:52 48.79723 16.61193 14713 ft 325 kts 151°
2026-04-22 18:52 48.77624 16.62382 14235 ft 321 kts 162°
2026-04-22 18:53 48.75449 16.63111 13989 ft 321 kts 165°
2026-04-22 18:53 48.73248 16.63825 13771 ft 325 kts 165°
2026-04-22 18:53 48.71048 16.64552 13281 ft 321 kts 165°
2026-04-22 18:53 48.68879 16.65268 12762 ft 316 kts 165°
2026-04-22 18:54 48.66717 16.65801 12262 ft 317 kts 179°
2026-04-22 18:54 48.64518 16.65537 11777 ft 315 kts 185°
2026-04-22 18:54 48.62350 16.65192 11294 ft 311 kts 185°
2026-04-22 18:54 48.60200 16.64858 10820 ft 310 kts 185°
2026-04-22 18:55 48.58063 16.64535 10347 ft 307 kts 185°
2026-04-22 18:55 48.55943 16.64227 9853 ft 305 kts 185°
2026-04-22 18:55 48.53843 16.63930 9341 ft 301 kts 185°
2026-04-22 18:55 48.51784 16.63642 8847 ft 299 kts 185°
2026-04-22 18:56 48.49714 16.63354 8344 ft 298 kts 185°
2026-04-22 18:56 48.47662 16.63073 7852 ft 295 kts 185°
2026-04-22 18:56 48.45624 16.62797 7385 ft 295 kts 185°
2026-04-22 18:56 48.43562 16.62520 6903 ft 298 kts 185°
2026-04-22 18:57 48.41499 16.62241 6414 ft 295 kts 185°
2026-04-22 18:57 48.39492 16.61975 6102 ft 282 kts 185°
2026-04-22 18:57 48.37605 16.61731 6032 ft 262 kts 185°
2026-04-22 18:57 48.35955 16.61522 6030 ft 257 kts 185°
2026-04-22 18:58 48.34087 16.61282 6023 ft 256 kts 185°
2026-04-22 18:58 48.32308 16.61096 6018 ft 256 kts 176°
2026-04-22 18:58 48.30625 16.61827 6022 ft 253 kts 145°
2026-04-22 18:58 48.29259 16.63477 6016 ft 252 kts 135°
2026-04-22 18:59 48.27954 16.65218 6030 ft 251 kts 135°
2026-04-22 18:59 48.26647 16.66964 6027 ft 251 kts 135°
2026-04-22 18:59 48.25342 16.68705 6026 ft 251 kts 135°
2026-04-22 18:59 48.24034 16.70451 6019 ft 252 kts 135°
2026-04-22 19:00 48.22724 16.72196 6024 ft 252 kts 135°
2026-04-22 19:00 48.21431 16.73916 6020 ft 252 kts 135°
2026-04-22 19:00 48.20122 16.75656 6018 ft 252 kts 135°
2026-04-22 19:00 48.18813 16.77394 6025 ft 251 kts 135°
2026-04-22 19:01 48.17486 16.79153 6020 ft 252 kts 135°
2026-04-22 19:01 48.16185 16.80875 6028 ft 252 kts 135°
2026-04-22 19:01 48.14869 16.82615 6006 ft 252 kts 135°
2026-04-22 19:01 48.13547 16.84361 5793 ft 253 kts 135°
2026-04-22 19:02 48.12231 16.86096 5408 ft 250 kts 135°
2026-04-22 19:02 48.10928 16.87811 5072 ft 249 kts 135°
2026-04-22 19:02 48.09623 16.89526 4817 ft 249 kts 135°
2026-04-22 19:02 48.08336 16.91220 4545 ft 248 kts 135°
2026-04-22 19:03 48.07039 16.92924 4279 ft 248 kts 135°
2026-04-22 19:03 48.05745 16.94622 4056 ft 246 kts 135°
2026-04-22 19:03 48.04444 16.96294 4000 ft 248 kts 142°
2026-04-22 19:03 48.02832 16.97226 4003 ft 252 kts 175°
2026-04-22 19:04 48.01129 16.96826 4003 ft 249 kts 211°
2026-04-22 19:04 47.99937 16.95054 3999 ft 241 kts 251°
2026-04-22 19:04 47.99735 16.92690 4009 ft 228 kts 286°
2026-04-22 19:04 48.00183 16.90553 4009 ft 207 kts 298°
2026-04-22 19:05 48.00756 16.88716 4012 ft 184 kts 302°
2026-04-22 19:05 48.01309 16.87053 4018 ft 181 kts 302°
2026-04-22 19:05 48.01860 16.85371 4018 ft 179 kts 302°
2026-04-22 19:05 48.02406 16.83696 4020 ft 179 kts 302°
2026-04-22 19:06 48.02953 16.82019 4018 ft 179 kts 302°
2026-04-22 19:06 48.03498 16.80345 3969 ft 180 kts 302°
2026-04-22 19:06 48.04044 16.78668 3751 ft 178 kts 302°
2026-04-22 19:07 48.05114 16.75382 3268 ft 176 kts 302°
2026-04-22 19:07 48.05650 16.73735 3023 ft 174 kts 302°
2026-04-22 19:07 48.06176 16.72118 2802 ft 174 kts 302°
2026-04-22 19:07 48.06706 16.70489 2557 ft 174 kts 302°
2026-04-22 19:08 48.07256 16.68805 2310 ft 179 kts 301°
2026-04-22 19:08 48.07601 16.67730 2144 ft 168 kts 302°
2026-04-22 19:08 48.08082 16.66246 1931 ft 148 kts 302°
2026-04-22 19:08 48.08500 16.64955 1732 ft 129 kts 303°
2026-04-22 19:09 48.08876 16.63808 1549 ft 117 kts 302°
2026-04-22 19:09 48.09267 16.62624 1374 ft 132 kts 300°
2026-04-22 19:09 48.09654 16.61421 1194 ft 126 kts 299°
2026-04-22 19:09 48.10037 16.60243 1017 ft 126 kts 298°
2026-04-22 19:10 48.10402 16.59051 828 ft 126 kts 297°
2026-04-22 19:10 48.10786 16.57890 699 ft 126 kts 300°
2026-04-22 19:10 48.11160 16.56777 621 ft 110 kts 296°
2026-04-22 19:10 48.11408 16.56019 611 ft 52 kts 297°
2026-04-22 19:11 48.11525 16.55653 615 ft 37 kts 297°
2026-04-22 19:11 48.11662 16.55344 609 ft 34 kts 318°
2026-04-22 19:11 48.11781 16.55176 612 ft 0 kts 317°
2026-04-22 19:12 48.11782 16.55175 612 ft 1 kts 317°
2026-04-22 19:12 48.11814 16.55147 609 ft 9 kts 339°
2026-04-22 19:12 48.11857 16.55134 611 ft 2 kts 12°
2026-04-22 19:12 48.11883 16.55166 617 ft 8 kts 57°
2026-04-22 19:13 48.11858 16.55286 615 ft 16 kts 116°
2026-04-22 19:13 48.11803 16.55458 617 ft 20 kts 115°
2026-04-22 19:13 48.11735 16.55662 617 ft 21 kts 116°
2026-04-22 19:13 48.11676 16.55838 611 ft 20 kts 116°
2026-04-22 19:14 48.11649 16.55923 613 ft 5 kts 116°
2026-04-22 19:14 48.11618 16.56018 618 ft 17 kts 115°
2026-04-22 19:14 48.11559 16.56202 614 ft 18 kts 116°
2026-04-22 19:14 48.11499 16.56385 613 ft 21 kts 116°
2026-04-22 19:15 48.11432 16.56592 616 ft 22 kts 116°
2026-04-22 19:15 48.11379 16.56756 615 ft 18 kts 115°
2026-04-22 19:15 48.11322 16.56931 612 ft 19 kts 116°
2026-04-22 19:15 48.11263 16.57108 614 ft 7 kts 116°
2026-04-22 19:16 48.11262 16.57110 614 ft 0 kts 116°
2026-04-22 19:16 48.11252 16.57143 621 ft 8 kts 116°
2026-04-22 19:16 48.11233 16.57250 615 ft 12 kts 78°
2026-04-22 19:16 48.11307 16.57327 617 ft 15 kts 26°
2026-04-22 19:17 48.11407 16.57398 617 ft 17 kts 25°
2026-04-22 19:17 48.11525 16.57460 609 ft 18 kts 354°
2026-04-22 19:17 48.11596 16.57435 611 ft 8 kts 345°
2026-04-22 19:17 48.11659 16.57409 617 ft 11 kts 345°
2026-04-22 19:18 48.11703 16.57390 614 ft 7 kts 343°
2026-04-22 19:18 48.11734 16.57376 613 ft 0 kts 343°
2026-04-22 19:19 48.11752 16.57368 618 ft 8 kts 343°
2026-04-22 19:19 48.11820 16.57317 616 ft 13 kts 307°
2026-04-22 19:19 48.11833 16.57281 618 ft 0 kts 297°
2026-04-22 19:20 48.11833 16.57280 618 ft 1 kts 297°
2026-04-22 19:21 48.11847 16.57238 621 ft 8 kts 294°
2026-04-22 19:21 48.11860 16.57129 613 ft 13 kts 286°
2026-04-22 19:21 48.11877 16.57070 616 ft 0 kts 293°
2026-04-22 19:21 48.11876 16.57068 616 ft 0 kts 271°
2026-04-22 19:22 48.11875 16.57069 620 ft 3 kts 259°
2026-04-22 19:22 48.11876 16.57080 621 ft 2 kts 245°
2026-04-22 19:22 48.11873 16.57081 617 ft 1 kts 210°
2026-04-22 19:22 48.11840 16.57063 625 ft 11 kts 204°
2026-04-22 19:23 48.11804 16.57036 617 ft 0 kts 207°
2026-04-22 19:23 48.11801 16.57034 609 ft 1 kts 207°
2026-04-22 19:23 48.11807 16.57038 617 ft 0 kts 207°